Weather History for KAVX - November, 2013

Change the Weather History Date:

Thursday, November 7, 2013

  Actual Average Record
Temperature  
Mean Temperature 72 °F -  
Max Temperature 79 °F 60 °F 86 °F (2006)
Min Temperature 66 °F 50 °F -40 °F (2000)
Cooling Degree Days 8    
Growing Degree Days 22 (Base 50)    
Moisture  
Dew Point 11 °F    
Average Humidity 10    
Maximum Humidity 14    
Minimum Humidity 6    
Precipitation  
Precipitation 0.00 in - - ()
Sea Level Pressure  
Sea Level Pressure 30.03 in    
Wind  
Wind Speed 4 mph (WNW)    
Max Wind Speed 12 mph    
Max Gust Speed -    
Visibility 10 miles    
Events      
Averages and records for this station are not official NWS values.
T = Trace of Precipitation, MM = Missing Value Source: NWS Daily Summary

Daily Weather History Graph

Daily Weather History Graph

Search for Another Location

Airport or City:

Trip Planner

Search our weather history database for the weather conditions in past years. The results will help you decide how hot, cold, wet, or windy it might be!

Date:

Astronomy

Nov. 07, 2013 Rise Set
Actual Time 6:17 AM PST 4:56 PM PST
Civil Twilight 5:51 AM PST 5:22 PM PST
Nautical Twilight 5:22 AM PST 5:51 PM PST
Astronomical Twilight 4:53 AM PST 6:21 PM PST
Moon 10:28 AM PST (11/7) 9:15 PM PST (11/7)
Length of Visible Light 11h 30m
Length of Day
10h 38m
Waxing Crescent, 24% of the Moon is Illuminated
Nov 7
Waxing Crescent
Nov 9
First Quarter
Nov 17
Full
Nov 25
Last Quarter
Dec 2
New

Hourly Weather History & Observations

Time (PST) Temp. Dew Point Humidity Pressure Visibility Wind Dir Wind Speed Gust Speed Precip Events Conditions
12:51 AM 68.0 °F 3.0 °F 8% 30.08 in 10.0 mi ENE 4.6 mph - N/A   Clear
1:51 AM 72.0 °F 1.0 °F 6% 30.06 in 10.0 mi Calm Calm - N/A   Clear
2:51 AM 71.1 °F -0.9 °F 6% 30.06 in 10.0 mi West 4.6 mph - N/A   Clear
3:51 AM 66.9 °F 8.1 °F 10% 30.06 in 10.0 mi NNW 3.5 mph - N/A   Clear
4:51 AM 66.9 °F 10.0 °F 11% 30.07 in 10.0 mi North 6.9 mph - N/A   Clear
5:51 AM 68.0 °F 10.9 °F 11% 30.07 in 10.0 mi NNW 5.8 mph - N/A   Clear
6:51 AM 70.0 °F 10.9 °F 10% 30.07 in 10.0 mi Calm Calm - N/A   Clear
7:51 AM 70.0 °F 12.0 °F 11% 30.09 in 10.0 mi SW 4.6 mph - N/A   Clear
8:51 AM 73.9 °F 10.9 °F 9% 30.09 in 10.0 mi SSW 3.5 mph - N/A   Clear
9:51 AM 79.0 °F 15.1 °F 9% 30.08 in 10.0 mi East 3.5 mph - N/A   Clear
10:51 AM 79.0 °F 8.1 °F 7% 30.07 in 10.0 mi Variable 3.5 mph - N/A   Clear
11:51 AM 75.0 °F 12.9 °F 9% 30.05 in 10.0 mi West 8.1 mph - N/A   Clear
12:51 PM 78.1 °F 12.9 °F 8% 30.02 in 10.0 mi NNE 3.5 mph - N/A   Clear
1:51 PM 75.0 °F 5.0 °F 7% 30.00 in 10.0 mi WSW 5.8 mph - N/A   Clear
2:51 PM 77.0 °F 9.0 °F 7% 29.99 in 10.0 mi Variable 3.5 mph - N/A   Clear
3:51 PM 73.0 °F 12.9 °F 10% 30.00 in 10.0 mi West 3.5 mph - N/A   Clear
4:51 PM 71.1 °F 12.9 °F 11% 30.00 in 10.0 mi WSW 3.5 mph - N/A   Clear
5:51 PM 69.1 °F 16.0 °F 13% 30.00 in 10.0 mi NW 5.8 mph - N/A   Clear
6:51 PM 69.1 °F 9.0 °F 10% 29.99 in 10.0 mi NW 9.2 mph - N/A   Clear
7:51 PM 68.0 °F 12.9 °F 12% 29.99 in 10.0 mi NW 11.5 mph - N/A   Clear
8:51 PM 69.1 °F 17.1 °F 14% 29.99 in 10.0 mi NW 6.9 mph - N/A   Clear
9:51 PM 69.1 °F 16.0 °F 13% 29.99 in 10.0 mi WNW 6.9 mph - N/A   Clear
10:51 PM 69.1 °F 15.1 °F 13% 29.98 in 10.0 mi WSW 5.8 mph - N/A   Clear
11:51 PM 68.0 °F 14.0 °F 12% 29.98 in 10.0 mi NW 6.9 mph - N/A   Clear